Hourly Data Report for September 22, 2017

All times are specified in Local Standard Time (LST). Add 1 hour to adjust for Daylight Saving Time where and when it is observed.

MIRAMICHI RCS
NEW BRUNSWICK

47°00'34.000" N
65°27'54.000" W
33.00 m
8100989
71744
ACQ

Download Data

Hourly Data (September 2017)
Hourly Data Report for September 22, 2017
Temp Definition
°C
Dew Point Temp Definition
°C
Rel Hum Definition
%
Wind Dir Definition
10's deg

Wind Spd Definition
km/h
Visibility Definition
km
Stn Press Definition
kPa
Hmdx Definition


Wind Chill Definition


Weather Definition


TIME
00:00 6.8 5.5 91 25 3   101.95     LegendNANA
01:00 6.2 5.5 95 25 2   101.96     LegendNANA
02:00 5.5 4.8 95   0   101.93     LegendNANA
03:00 5.2 4.8 97 27 3   101.93     LegendNANA
04:00 5.3 4.9 97 29 5   101.89     LegendNANA
05:00 4.4 3.8 96 28 3   101.89     LegendNANA
06:00 5.0 4.6 98 26 4   101.88     LegendNANA
07:00 4.8 4.2 96 29 2   101.95     LegendNANA
08:00 8.4 6.7 89 24 5   101.98     LegendNANA
09:00 12.5 8.9 78 25 7   101.95     LegendNANA
10:00 14.9 9.8 71 27 9   101.89     LegendNANA
11:00 17.0 8.7 58 25 5   101.87     LegendNANA
12:00 19.1 6.5 44 26 5   101.78     LegendNANA
13:00 21.0 7.3 41 25 5   101.72     LegendNANA
14:00 22.3 6.7 36 21 4   101.65     LegendNANA
15:00 23.2 6.7 35 20 4   101.58     LegendNANA
16:00 23.3 5.8 32 20 7   101.54     LegendNANA
17:00 23.0 6.1 33 22 5   101.51     LegendNANA
18:00 20.3 8.9 48   0   101.48     LegendNANA
19:00 16.8 11.0 69   0   101.44     LegendNANA
20:00 14.8 9.5 71 0 1   101.44     LegendNANA
21:00 14.5 9.1 70 18 7   101.40     LegendNANA
22:00 13.5 9.2 75 24 3   101.42     LegendNANA
23:00 11.3 8.9 85 25 5   101.39     LegendNANA

Notes on Data Quality.

Legend

  • E = Estimated
  • M = Missing
  • NA = Not Available
  • ‡ = Partner data that is not subject to review by the National Climate Archives
Date modified: